Glendive, MT

12:11 PM MST on February 21, 2018 (GMT -0700)
Dawson Community

Weather History for KGDV - September, 2012

Change the Weather History Date:

Friday, September 21, 2012

  Actual Average Record
Temperature  
Mean Temperature 56 °F -  
Max Temperature 69 °F 66 °F 80 °F (2013)
Min Temperature 42 °F 40 °F 33 °F (1997)
Degree Days  
Heating Degree Days 10    
Growing Degree Days 6 (Base 50)    
Moisture  
Dew Point 33 °F    
Average Humidity 43    
Maximum Humidity 62    
Minimum Humidity 27    
Precipitation  
Precipitation 0.00 in - - ()
Sea Level Pressure  
Sea Level Pressure 30.08 in    
Wind  
Wind Speed 11 mph (NNW)    
Max Wind Speed 21 mph    
Max Gust Speed 29 mph    
Visibility 10 miles    
Events      
Averages and records for this station are not official NWS values.
T = Trace of Precipitation, MM = Missing Value Source: NWS Daily Summary

Daily Weather History Graph

Daily Weather History Graph

Search for Another Location

Airport or City:

Trip Planner

Search our weather history database for the weather conditions in past years. The results will help you decide how hot, cold, wet, or windy it might be!

Date:

Astronomy

Sep. 21, 2012 Rise Set
Actual Time 6:45 AM MDT 6:57 PM MDT
Civil Twilight 6:14 AM MDT 7:28 PM MDT
Nautical Twilight 5:39 AM MDT 8:04 PM MDT
Astronomical Twilight 5:01 AM MDT 8:41 PM MDT
Moon 1:33 PM MDT 10:36 PM MDT
Length of Visible Light 13h 13m
Length of Day
12h 12m
Waxing Crescent, 38% of the Moon is Illuminated
Sep 21
Waxing Crescent
Sep 22
First Quarter
Sep 29
Full
Oct 8
Last Quarter
Oct 15
New

Hourly Weather History & Observations

Time (MDT) Temp. Windchill Dew Point Humidity Pressure Visibility Wind Dir Wind Speed Gust Speed Precip Events Conditions
12:15 AM 44.6 °F 39.2 °F 30.2 °F 57% 30.02 in 10.0 mi WNW 10.4 mph - N/A   Clear
12:35 AM 46.4 °F 41.9 °F 30.2 °F 53% 30.02 in 10.0 mi West 9.2 mph - N/A   Clear
12:55 AM 44.6 °F 40.2 °F 30.2 °F 57% 30.02 in 10.0 mi WNW 8.1 mph - N/A   Clear
1:15 AM 44.6 °F 39.2 °F 30.2 °F 57% 30.02 in 10.0 mi WNW 10.4 mph - N/A   Clear
1:35 AM 44.6 °F 40.2 °F 30.2 °F 57% 30.03 in 10.0 mi WNW 8.1 mph - N/A   Clear
1:55 AM 44.6 °F 40.7 °F 30.2 °F 57% 30.02 in 10.0 mi WNW 6.9 mph - N/A   Clear
2:15 AM 42.8 °F 37.5 °F 30.2 °F 61% 30.03 in 10.0 mi WNW 9.2 mph - N/A   Clear
2:35 AM 42.8 °F 37.5 °F 30.2 °F 61% 30.02 in 10.0 mi NW 9.2 mph - N/A   Clear
2:55 AM 42.8 °F 37.5 °F 30.2 °F 61% 30.02 in 10.0 mi WNW 9.2 mph - N/A   Clear
3:15 AM 44.6 °F 39.7 °F 30.2 °F 57% 30.02 in 10.0 mi NW 9.2 mph - N/A   Clear
3:35 AM 42.8 °F 38.0 °F 30.2 °F 61% 30.02 in 10.0 mi WNW 8.1 mph - N/A   Clear
4:35 AM 44.6 °F 40.2 °F 30.2 °F 57% 30.03 in 10.0 mi WNW 8.1 mph - N/A   Clear
4:55 AM 46.4 °F 41.9 °F 33.8 °F 62% 30.03 in 10.0 mi WNW 9.2 mph - N/A   Clear
5:15 AM 46.4 °F 41.9 °F 30.2 °F 53% 30.03 in 10.0 mi WNW 9.2 mph - N/A   Clear
5:35 AM 44.6 °F 39.2 °F 30.2 °F 57% 30.03 in 10.0 mi NW 10.4 mph - N/A   Clear
5:55 AM 42.8 °F 37.5 °F 30.2 °F 61% 30.03 in 10.0 mi NW 9.2 mph - N/A   Clear
6:15 AM 44.6 °F 39.2 °F 32.0 °F 61% 30.03 in 10.0 mi NW 10.4 mph - N/A   Clear
6:35 AM 44.6 °F 39.2 °F 32.0 °F 61% 30.04 in 10.0 mi NW 10.4 mph - N/A   Clear
6:55 AM 44.6 °F 39.2 °F 32.0 °F 61% 30.04 in 10.0 mi WNW 10.4 mph - N/A   Clear
7:15 AM 44.6 °F 39.2 °F 32.0 °F 61% 30.05 in 10.0 mi WNW 10.4 mph - N/A   Clear
7:35 AM 51.8 °F - 35.6 °F 54% 30.05 in 10.0 mi WNW 11.5 mph - N/A   Clear
7:55 AM 53.6 °F - 35.6 °F 51% 30.06 in 10.0 mi NW 15.0 mph - N/A   Clear
8:15 AM 55.4 °F - 35.6 °F 47% 30.06 in 10.0 mi NW 13.8 mph 19.6 mph N/A   Clear
8:35 AM 55.4 °F - 35.6 °F 47% 30.06 in 10.0 mi NW 17.3 mph - N/A   Clear
8:55 AM 57.2 °F - 35.6 °F 44% 30.07 in 10.0 mi NW 18.4 mph - N/A   Clear
9:15 AM 57.2 °F - 35.6 °F 44% 30.08 in 10.0 mi NNW 17.3 mph 20.7 mph N/A   Clear
9:35 AM 59.0 °F - 35.6 °F 42% 30.08 in 10.0 mi NNW 16.1 mph - N/A   Clear
10:15 AM 62.6 °F - 35.6 °F 37% 30.09 in 10.0 mi NW 18.4 mph - N/A   Clear
10:35 AM 62.6 °F - 35.6 °F 37% 30.09 in 10.0 mi NNW 19.6 mph 23.0 mph N/A   Clear
10:55 AM 62.6 °F - 35.6 °F 37% 30.10 in 10.0 mi North 18.4 mph - N/A   Clear
11:15 AM 64.4 °F - 35.6 °F 34% 30.10 in 10.0 mi NW 18.4 mph 21.9 mph N/A   Clear
11:35 AM 64.4 °F - 35.6 °F 34% 30.10 in 10.0 mi NW 18.4 mph 24.2 mph N/A   Clear
11:55 AM 66.2 °F - 33.8 °F 30% 30.10 in 10.0 mi North 20.7 mph 25.3 mph N/A   Clear
12:15 PM 66.2 °F - 33.8 °F 30% 30.10 in 10.0 mi NNW 20.7 mph 28.8 mph N/A   Clear
12:35 PM 66.2 °F - 33.8 °F 30% 30.10 in 10.0 mi NNW 15.0 mph 19.6 mph N/A   Clear
12:55 PM 66.2 °F - 32.0 °F 28% 30.10 in 10.0 mi North 18.4 mph 28.8 mph N/A   Clear
1:15 PM 68.0 °F - 33.8 °F 28% 30.11 in 10.0 mi North 13.8 mph 19.6 mph N/A   Clear
1:35 PM 69.8 °F - 33.8 °F 27% 30.10 in 10.0 mi NNW 16.1 mph 23.0 mph N/A   Clear
1:55 PM 68.0 °F - 33.8 °F 28% 30.10 in 10.0 mi NW 8.1 mph 24.2 mph N/A   Clear
2:15 PM 69.8 °F - 33.8 °F 27% 30.10 in 10.0 mi North 15.0 mph 24.2 mph N/A   Clear
2:35 PM 69.8 °F - 33.8 °F 27% 30.09 in 10.0 mi North 17.3 mph - N/A   Clear
2:55 PM 69.8 °F - 33.8 °F 27% 30.09 in 10.0 mi NW 13.8 mph 24.2 mph N/A   Clear
3:15 PM 69.8 °F - 33.8 °F 27% 30.09 in 10.0 mi NNW 19.6 mph 24.2 mph N/A   Clear
3:35 PM 69.8 °F - 33.8 °F 27% 30.09 in 10.0 mi North 12.7 mph 25.3 mph N/A   Clear
3:55 PM 69.8 °F - 33.8 °F 27% 30.09 in 10.0 mi NNW 16.1 mph 23.0 mph N/A   Clear
4:36 PM 69.8 °F - 33.8 °F 27% 30.09 in 10.0 mi North 18.4 mph 26.5 mph N/A   Clear
4:55 PM 69.8 °F - 33.8 °F 27% 30.09 in 10.0 mi NNW 15.0 mph 23.0 mph N/A   Clear
5:15 PM 69.8 °F - 33.8 °F 27% 30.10 in 10.0 mi NNW 17.3 mph 24.2 mph N/A   Clear
5:35 PM 69.8 °F - 33.8 °F 27% 30.10 in 10.0 mi NNW 15.0 mph 19.6 mph N/A   Clear
5:55 PM 69.8 °F - 33.8 °F 27% 30.10 in 10.0 mi North 12.7 mph 20.7 mph N/A   Clear
6:15 PM 68.0 °F - 33.8 °F 28% 30.11 in 10.0 mi North 15.0 mph - N/A   Clear
6:35 PM 66.2 °F - 33.8 °F 30% 30.11 in 10.0 mi North 10.4 mph - N/A   Clear
6:55 PM 64.4 °F - 33.8 °F 32% 30.11 in 10.0 mi North 8.1 mph - N/A   Clear
7:15 PM 60.8 °F - 33.8 °F 36% 30.12 in 10.0 mi North 5.8 mph - N/A   Clear
7:35 PM 60.8 °F - 33.8 °F 36% 30.12 in 10.0 mi North 5.8 mph - N/A   Clear
7:55 PM 57.2 °F - 33.8 °F 41% 30.12 in 10.0 mi NNW 6.9 mph - N/A   Clear
8:15 PM 57.2 °F - 33.8 °F 41% 30.12 in 10.0 mi North 5.8 mph - N/A   Clear
8:55 PM 55.4 °F - 33.8 °F 44% 30.13 in 10.0 mi North 5.8 mph - N/A   Clear
9:15 PM 53.6 °F - 32.0 °F 44% 30.13 in 10.0 mi North 8.1 mph - N/A   Clear
9:35 PM 57.2 °F - 33.8 °F 41% 30.14 in 10.0 mi NNE 9.2 mph - N/A   Clear
9:55 PM 53.6 °F - 33.8 °F 47% 30.15 in 10.0 mi NNE 8.1 mph - N/A   Clear
10:15 PM 53.6 °F - 32.0 °F 44% 30.16 in 10.0 mi ENE 3.5 mph - N/A   Clear
10:35 PM 53.6 °F - 33.8 °F 47% 30.17 in 10.0 mi ENE 9.2 mph - N/A   Clear
10:55 PM 51.8 °F - 32.0 °F 47% 30.17 in 10.0 mi NE 8.1 mph - N/A   Clear
11:15 PM 51.8 °F - 32.0 °F 47% 30.17 in 10.0 mi NE 3.5 mph - N/A   Clear
11:35 PM 51.8 °F - 33.8 °F 50% 30.18 in 10.0 mi NE 3.5 mph - N/A   Clear
11:55 PM 48.2 °F - 30.2 °F 50% 30.18 in 10.0 mi NE 5.8 mph - N/A   Clear